AAL702 KDFW-TJSJ

Flight info

Callsign AAL702
Flight time N/A
Altitude 35000
Route MRSSH3 ZALEA DCT HRV Q105 BLVNS Y290 BEANO RTE6 SJU
Aircraft B738/M-SDE2E3FGHIRWXY/LB1

Departure

Time 2026-04-30 21:00
Airport Dallas Fort Worth International Airport (KDFW)

Arrival

Time N/A
Airport Luis Munoz Marin International Airport (TJSJ)
Time Latitude Longitude Altitude Speed Heading
2026-04-30 20:41 32.90505 -97.03501 614 ft 0 kts 267°
2026-04-30 20:46 32.90505 -97.03499 614 ft 2 kts 267°
2026-04-30 20:46 32.90506 -97.03469 619 ft 4 kts 268°
2026-04-30 20:47 32.90519 -97.03410 629 ft 4 kts 225°
2026-04-30 20:47 32.90537 -97.03399 629 ft 1 kts 180°
2026-04-30 20:48 32.90541 -97.03399 623 ft 0 kts 180°
2026-04-30 20:52 32.90512 -97.03399 619 ft 8 kts 180°
2026-04-30 20:52 32.90472 -97.03357 619 ft 9 kts 103°
2026-04-30 20:52 32.90466 -97.03219 621 ft 8 kts 104°
2026-04-30 20:53 32.90419 -97.03190 628 ft 9 kts 176°
2026-04-30 20:53 32.90315 -97.03189 622 ft 19 kts 181°
2026-04-30 20:53 32.90182 -97.03191 621 ft 19 kts 180°
2026-04-30 20:54 32.89929 -97.03193 622 ft 18 kts 180°
2026-04-30 20:54 32.89809 -97.03194 620 ft 17 kts 180°
2026-04-30 20:54 32.89695 -97.03195 619 ft 16 kts 180°
2026-04-30 20:55 32.89477 -97.03196 617 ft 15 kts 180°
2026-04-30 20:55 32.89374 -97.03197 627 ft 14 kts 180°
2026-04-30 20:55 32.89276 -97.03197 622 ft 14 kts 180°
2026-04-30 20:56 32.89074 -97.03198 622 ft 16 kts 180°
2026-04-30 20:56 32.88959 -97.03198 618 ft 17 kts 180°
2026-04-30 20:56 32.88704 -97.03200 621 ft 19 kts 180°
2026-04-30 20:57 32.88569 -97.03201 618 ft 20 kts 180°
2026-04-30 20:57 32.88426 -97.03202 619 ft 21 kts 180°
2026-04-30 20:57 32.88279 -97.03203 620 ft 22 kts 180°
2026-04-30 20:58 32.87981 -97.03203 618 ft 18 kts 180°
2026-04-30 20:58 32.87902 -97.03160 615 ft 13 kts 106°
2026-04-30 20:58 32.87899 -97.03051 621 ft 13 kts 79°
2026-04-30 20:58 32.87971 -97.03008 621 ft 13 kts
2026-04-30 20:59 32.88472 -97.03003 622 ft 64 kts
2026-04-30 20:59 32.89047 -97.02999 622 ft 110 kts
2026-04-30 21:00 32.91235 -97.02976 848 ft 185 kts
2026-04-30 21:00 32.93636 -97.02744 2267 ft 189 kts 22°
2026-04-30 21:01 32.96431 -97.01694 2790 ft 227 kts 19°
2026-04-30 21:01 32.98023 -97.01129 3000 ft 251 kts 22°
2026-04-30 21:01 33.00670 -96.98486 4264 ft 261 kts 59°
2026-04-30 21:02 33.01635 -96.96616 4919 ft 265 kts 70°
2026-04-30 21:02 33.01857 -96.94442 5462 ft 270 kts 99°
2026-04-30 21:02 33.01565 -96.92190 6042 ft 281 kts 100°
2026-04-30 21:02 33.01289 -96.89852 6610 ft 288 kts 98°
2026-04-30 21:03 33.01046 -96.87468 7299 ft 291 kts 99°
2026-04-30 21:03 33.00371 -96.85178 7808 ft 297 kts 124°
2026-04-30 21:03 32.99206 -96.83141 8472 ft 300 kts 128°
2026-04-30 21:03 32.97986 -96.81097 9052 ft 307 kts 129°
2026-04-30 21:04 32.96729 -96.79002 9594 ft 314 kts 129°
2026-04-30 21:04 32.95467 -96.76892 10174 ft 320 kts 128°
2026-04-30 21:04 32.92739 -96.72311 10552 ft 359 kts 128°
2026-04-30 21:05 32.91269 -96.69830 10847 ft 372 kts 128°
2026-04-30 21:05 32.89773 -96.67295 11392 ft 377 kts 129°
2026-04-30 21:05 32.88261 -96.64728 12006 ft 380 kts 129°
2026-04-30 21:05 32.86733 -96.62138 12546 ft 386 kts 130°
2026-04-30 21:06 32.85184 -96.59513 13139 ft 389 kts 130°
2026-04-30 21:06 32.83638 -96.56898 13692 ft 394 kts 130°
2026-04-30 21:06 32.82052 -96.54216 14184 ft 399 kts 131°
2026-04-30 21:06 32.80441 -96.51496 14616 ft 405 kts 131°
2026-04-30 21:07 32.78810 -96.48742 15086 ft 410 kts 131°
2026-04-30 21:07 32.77157 -96.45953 15560 ft 415 kts 131°
2026-04-30 21:07 32.75486 -96.43133 16024 ft 420 kts 131°
2026-04-30 21:07 32.73792 -96.40278 16490 ft 425 kts 131°
2026-04-30 21:08 32.72080 -96.37397 16933 ft 430 kts 131°
2026-04-30 21:08 32.70417 -96.34418 17357 ft 440 kts 122°
2026-04-30 21:08 32.69425 -96.30980 17773 ft 454 kts 101°
2026-04-30 21:08 32.69119 -96.27234 18267 ft 458 kts 95°
2026-04-30 21:09 32.68908 -96.23441 18650 ft 462 kts 94°
2026-04-30 21:09 32.68708 -96.19622 19090 ft 465 kts 94°
2026-04-30 21:09 32.68493 -96.15793 19558 ft 466 kts 95°
2026-04-30 21:09 32.68259 -96.11954 20023 ft 467 kts 95°
2026-04-30 21:10 32.68009 -96.08102 20466 ft 469 kts 95°
2026-04-30 21:10 32.67748 -96.04232 20908 ft 471 kts 96°
2026-04-30 21:10 32.67483 -96.00351 21346 ft 473 kts 96°
2026-04-30 21:10 32.67219 -95.96506 21774 ft 475 kts 96°
2026-04-30 21:11 32.66952 -95.92599 22181 ft 476 kts 96°
2026-04-30 21:11 32.66682 -95.88670 22570 ft 479 kts 96°
2026-04-30 21:11 32.66410 -95.84718 22957 ft 481 kts 96°
2026-04-30 21:11 32.66136 -95.80762 23350 ft 483 kts 96°
2026-04-30 21:12 32.65858 -95.76783 23712 ft 485 kts 96°
2026-04-30 21:12 32.65578 -95.72785 23979 ft 488 kts 96°
2026-04-30 21:12 32.65294 -95.68757 24219 ft 492 kts 96°
2026-04-30 21:12 32.65008 -95.64705 24475 ft 495 kts 96°
2026-04-30 21:13 32.64722 -95.60674 24731 ft 498 kts 96°
2026-04-30 21:13 32.64430 -95.56575 25001 ft 501 kts 96°
2026-04-30 21:13 32.64134 -95.52444 25270 ft 503 kts 96°
2026-04-30 21:13 32.63836 -95.48297 25554 ft 507 kts 96°
2026-04-30 21:14 32.63535 -95.44122 25832 ft 510 kts 96°
2026-04-30 21:14 32.63229 -95.39915 26102 ft 513 kts 95°
2026-04-30 21:14 32.62921 -95.35686 26358 ft 516 kts 95°
2026-04-30 21:14 32.62610 -95.31437 26608 ft 519 kts 95°
2026-04-30 21:15 32.62295 -95.27159 26846 ft 522 kts 95°
2026-04-30 21:15 32.61981 -95.22918 27079 ft 524 kts 95°